• In Moldova, Republic
  • List of Countries
  • For 7 days
  • Water Temperature
  • Satellite Maps
  • Weather Map
  • Weather Widgets
  • user-avatar
    Login

    Hourly Weather Shusha

    Today, 26 May, Saturday

    Time Temperature Precipitation Wind Pressure Humidity
    00:00 +16°C° 0 mm 2 mps 657 mmHg 59%
    01:00 +16°C° 0 mm 2 mps 657 mmHg 58%
    02:00 +15°C° 0 mm 2 mps 657 mmHg 57%
    03:00 +16°C° 0 mm 3 mps 657 mmHg 53%
    04:00 +16°C° 0 mm 3 mps 657 mmHg 53%
    05:00 +17°C° 0 mm 2 mps 657 mmHg 54%
    06:00 +17°C° 0 mm 2 mps 657 mmHg 55%
    07:00 +19°C° 0 mm 2 mps 658 mmHg 49%
    08:00 +21°C° 0 mm 2 mps 659 mmHg 43%
    09:00 +25°C° 0 mm 2 mps 659 mmHg 36%
    10:00 +25°C° 0 mm 2 mps 660 mmHg 35%
    11:00 +26°C° 0 mm 3 mps 660 mmHg 34%
    12:00 +27°C° 0 mm 3 mps 660 mmHg 33%
    13:00 +27°C° 0.3 mm 3 mps 660 mmHg 33%
    14:00 +27°C° 0.3 mm 3 mps 660 mmHg 33%
    15:00 +27°C° 0.3 mm 2 mps 660 mmHg 34%
    16:00 +26°C° 0 mm 2 mps 660 mmHg 38%
    17:00 +25°C° 0 mm 2 mps 660 mmHg 42%
    18:00 +25°C° 0 mm 2 mps 659 mmHg 46%
    19:00 +21°C° 0.1 mm 2 mps 659 mmHg 50%
    20:00 +19°C° 0.1 mm 2 mps 659 mmHg 55%
    21:00 +17°C° 0.1 mm 2 mps 659 mmHg 60%
    22:00 +17°C° 0.1 mm 2 mps 660 mmHg 61%
    23:00 +16°C° 0.1 mm 2 mps 660 mmHg 63%

    Tomorrow, 27 May, Sunday

    Time Temperature Precipitation Wind Pressure Humidity
    00:00 +16°C° 0.1 mm 2 mps 660 mmHg 64%
    01:00 +16°C° 0.1 mm 2 mps 661 mmHg 65%
    02:00 +15°C° 0.1 mm 2 mps 661 mmHg 66%
    03:00 +15°C° 0.1 mm 2 mps 661 mmHg 67%
    04:00 +15°C° 0 mm 2 mps 661 mmHg 67%
    05:00 +16°C° 0 mm 2 mps 662 mmHg 67%
    06:00 +16°C° 0 mm 2 mps 662 mmHg 68%
    07:00 +17°C° 0 mm 3 mps 663 mmHg 64%
    08:00 +18°C° 0 mm 4 mps 664 mmHg 60%
    09:00 +19°C° 0 mm 5 mps 665 mmHg 56%
    10:00 +19°C° 0 mm 5 mps 665 mmHg 56%
    11:00 +19°C° 0 mm 5 mps 665 mmHg 57%
    12:00 +19°C° 0 mm 6 mps 665 mmHg 57%
    13:00 +19°C° 0.1 mm 6 mps 665 mmHg 58%
    14:00 +17°C° 0.1 mm 5 mps 664 mmHg 60%
    15:00 +17°C° 0.1 mm 5 mps 664 mmHg 61%
    16:00 +16°C° 0.1 mm 5 mps 664 mmHg 63%
    17:00 +15°C° 0.1 mm 4 mps 664 mmHg 66%
    18:00 +14°C° 0.1 mm 4 mps 664 mmHg 68%
    19:00 +13°C° 0 mm 3 mps 664 mmHg 71%
    20:00 +13°C° 0 mm 2 mps 664 mmHg 74%
    21:00 +12°C° 0 mm 2 mps 665 mmHg 77%
    22:00 +12°C° 0 mm 1 mps 664 mmHg 78%
    23:00 +11°C° 0 mm 1 mps 664 mmHg 79%

    Day after tomorrow, 28 May, Monday

    Time Temperature Precipitation Wind Pressure Humidity
    00:00 +11°C° 0 mm 1 mps 664 mmHg 80%
    01:00 +11°C° 0 mm 1 mps 664 mmHg 80%
    02:00 +10°C° 0 mm 1 mps 663 mmHg 79%
    03:00 +10°C° 0 mm 1 mps 663 mmHg 79%
    04:00 +11°C° 0 mm 1 mps 663 mmHg 76%
    05:00 +12°C° 0 mm 1 mps 663 mmHg 73%
    06:00 +13°C° 0 mm 1 mps 663 mmHg 70%
    07:00 +15°C° 0 mm 1 mps 663 mmHg 64%
    08:00 +18°C° 0 mm 1 mps 663 mmHg 58%
    09:00 +18°C° 0 mm 2 mps 664 mmHg 52%
    10:00 +20°C° 0 mm 2 mps 663 mmHg 49%
    11:00 +21°C° 0 mm 2 mps 663 mmHg 46%
    12:00 +23°C° 0 mm 2 mps 663 mmHg 43%
    13:00 +24°C° 0.2 mm 2 mps 663 mmHg 42%
    14:00 +24°C° 0.2 mm 2 mps 662 mmHg 42%
    15:00 +25°C° 0.2 mm 2 mps 662 mmHg 42%
    16:00 +24°C° 0.2 mm 2 mps 662 mmHg 45%
    17:00 +23°C° 0.2 mm 2 mps 661 mmHg 49%
    18:00 +21°C° 0.2 mm 2 mps 661 mmHg 52%
    19:00 +21°C° 0.1 mm 1 mps 661 mmHg 57%
    20:00 +19°C° 0.1 mm 1 mps 661 mmHg 62%
    21:00 +16°C° 0.1 mm 1 mps 661 mmHg 66%
    22:00 +16°C° 0 mm 1 mps 661 mmHg 67%
    23:00 +15°C° 0 mm 1 mps 661 mmHg 68%

    29 May, Tuesday

    Time Temperature Precipitation Wind Pressure Humidity
    00:00 +15°C° 0 mm 1 mps 660 mmHg 69%
    01:00 +15°C° 0 mm 1 mps 660 mmHg 71%
    02:00 +14°C° 0 mm 1 mps 660 mmHg 72%
    03:00 +14°C° 0 mm 1 mps 660 mmHg 73%
    04:00 +15°C° 0 mm 1 mps 661 mmHg 71%
    05:00 +16°C° 0 mm 1 mps 661 mmHg 70%
    06:00 +16°C° 0 mm 1 mps 661 mmHg 68%
    07:00 +18°C° 0 mm 2 mps 662 mmHg 61%
    08:00 +19°C° 0 mm 3 mps 662 mmHg 55%
    09:00 +21°C° 0 mm 5 mps 662 mmHg 49%
    10:00 +21°C° 0 mm 5 mps 662 mmHg 49%
    11:00 +21°C° 0 mm 5 mps 662 mmHg 48%
    12:00 +22°C° 0 mm 6 mps 662 mmHg 48%
    13:00 +21°C° 0.1 mm 6 mps 662 mmHg 51%
    14:00 +20°C° 0.1 mm 6 mps 662 mmHg 54%
    15:00 +20°C° 0.1 mm 6 mps 661 mmHg 57%
    16:00 +17°C° 0 mm 5 mps 661 mmHg 59%
    17:00 +16°C° 0 mm 5 mps 661 mmHg 62%
    18:00 +15°C° 0 mm 5 mps 661 mmHg 64%
    19:00 +14°C° 0.3 mm 4 mps 661 mmHg 67%
    20:00 +13°C° 0.3 mm 3 mps 662 mmHg 70%
    21:00 +14°C° 0.3 mm 2 mps 662 mmHg 73%
    22:00 +13°C° 0.1 mm 2 mps 662 mmHg 75%
    23:00 +12°C° 0.1 mm 2 mps 661 mmHg 78%

    30 May, Wednesday

    Time Temperature Precipitation Wind Pressure Humidity
    00:00 +11°C° 0.1 mm 1 mps 661 mmHg 80%
    01:00 +11°C° 0 mm 1 mps 661 mmHg 81%
    02:00 +11°C° 0 mm 1 mps 661 mmHg 82%
    03:00 +11°C° 0 mm 1 mps 661 mmHg 82%
    04:00 +10°C° 0 mm 2 mps 661 mmHg 81%
    05:00 +10°C° 0 mm 2 mps 661 mmHg 80%
    06:00 +12°C° 0 mm 2 mps 662 mmHg 79%
    07:00 +12°C° 0 mm 3 mps 662 mmHg 74%
    08:00 +13°C° 0 mm 3 mps 662 mmHg 69%
    09:00 +14°C° 0 mm 3 mps 662 mmHg 64%
    10:00 +16°C° 0 mm 3 mps 662 mmHg 61%
    11:00 +17°C° 0 mm 3 mps 662 mmHg 58%
    12:00 +18°C° 0 mm 3 mps 662 mmHg 54%
    13:00 +19°C° 0.1 mm 3 mps 662 mmHg 53%
    14:00 +20°C° 0.1 mm 3 mps 662 mmHg 51%
    15:00 +20°C° 0.1 mm 3 mps 662 mmHg 49%
    16:00 +20°C° 0 mm 3 mps 661 mmHg 52%
    17:00 +19°C° 0 mm 3 mps 661 mmHg 55%
    18:00 +18°C° 0 mm 2 mps 661 mmHg 58%
    19:00 +17°C° 0 mm 2 mps 661 mmHg 61%
    20:00 +16°C° 0 mm 2 mps 660 mmHg 64%
    21:00 +14°C° 0 mm 1 mps 660 mmHg 68%
    22:00 +14°C° 0 mm 1 mps 660 mmHg 68%
    23:00 +14°C° 0 mm 1 mps 659 mmHg 68%

    31 May, Thursday

    Time Temperature Precipitation Wind Pressure Humidity
    00:00 +14°C° 0 mm 1 mps 659 mmHg 68%
    01:00 +13°C° 0 mm 1 mps 658 mmHg 69%
    02:00 +13°C° 0 mm 1 mps 658 mmHg 69%
    03:00 +13°C° 0 mm 1 mps 657 mmHg 70%
    04:00 +13°C° 0 mm 1 mps 657 mmHg 67%
    05:00 +14°C° 0 mm 1 mps 657 mmHg 64%
    06:00 +15°C° 0 mm 1 mps 657 mmHg 62%
    07:00 +17°C° 0 mm 2 mps 657 mmHg 56%
    08:00 +19°C° 0 mm 2 mps 658 mmHg 51%
    09:00 +21°C° 0 mm 3 mps 658 mmHg 45%
    10:00 +22°C° 0 mm 3 mps 658 mmHg 43%
    11:00 +25°C° 0 mm 3 mps 657 mmHg 41%
    12:00 +26°C° 0 mm 3 mps 657 mmHg 38%
    13:00 +26°C° 0 mm 3 mps 657 mmHg 37%
    14:00 +27°C° 0 mm 3 mps 657 mmHg 37%
    15:00 +27°C° 0 mm 3 mps 656 mmHg 36%
    16:00 +26°C° 0.2 mm 3 mps 656 mmHg 42%
    17:00 +25°C° 0.2 mm 2 mps 656 mmHg 48%
    18:00 +23°C° 0.2 mm 2 mps 655 mmHg 54%
    19:00 +21°C° 0.3 mm 2 mps 655 mmHg 59%
    20:00 +19°C° 0.3 mm 2 mps 655 mmHg 64%
    21:00 +17°C° 0.3 mm 2 mps 655 mmHg 69%
    22:00 +17°C° 0 mm 2 mps 655 mmHg 68%
    23:00 +17°C° 0 mm 2 mps 656 mmHg 67%
    Show more